Regional Weather Roundup
Issued by NWS Burlington, VT

Home | Current Version | Previous Version | Text Only | Print | Product List | Glossary On
Versions: 1 2 3 4 5 6 7 8 9 10 11 12 13 14 15 16 17 18 19 20 21 22 23 24 25 26 27 28 29 30 31 32 33 34 35 36 37 38 39 40 41 42 43 44 45 46 47 48 49 50
000
ASUS41 KBTV 311130
RWRBTV
VERMONT REGIONAL WEATHER ROUNDUP
NATIONAL WEATHER SERVICE BURLINGTON VT
600 AM EST SAT JAN 31 2015

NOTE: "FAIR" INDICATES FEW OR NO CLOUDS BELOW 12,000 FEET WITH NO
SIGNIFICANT WEATHER AND/OR OBSTRUCTIONS TO VISIBILITY.

* THESE REPORTS ARE NOT UNDER NWS QUALITY CONTROL AND/OR DO NOT
  REPORT WEATHER SUCH AS PRECIPITATION AND FOG.

VTZ001>019-311200-
_____VERMONT_____


CITY           SKY/WX    TMP DP  RH WIND       PRES   REMARKS
BURLINGTON     MOSUNNY   -5 -13  68 NE9       30.17R
MONTPELIER     MOSUNNY   -7 -12  79 NW12      30.04R WCI -26
MORRISVILLE    CLOUDY    -5 -13  68 N8        30.09R
ST. JOHNSBURY*   N/A     -2  -9  72 MISG      30.02R
LYNDONVILLE*   FAIR      -5 -14  64 W8        30.00R
MIDDLEBURY*    FAIR      -1  -8  71 N14       30.11R WCI -20
RUTLAND*       MOSUNNY   -2  -8  78 NW13      30.05R WCI -21
SPRINGFIELD    SUNNY      2  -8  63 W10       30.00R WCI -14
HIGHGATE*      FAIR      -7 -14  71 W3        30.20R
NEWPORT*       CLOUDY    -7 -12  76 NW13      30.05R HAZE    WCI -26
BENNINGTON     MOSUNNY   -1 -11  62 NW5       30.06R
SUTTON*          N/A     -8 N/A N/A MISG        N/A
GALLUP MILLS*    N/A     -6 N/A N/A MISG        N/A
UNION VILLAGE*   N/A      0 N/A N/A MISG        N/A
MT. MANSFIELD*   N/A    -17 N/A N/A CALM        N/A

_____LAKE CHAMPLAIN_____


CITY           SKY/WX    TMP DP  RH WIND       PRES   REMARKS
BURTON ISLAND*   N/A     -2  -9  71 NW9         N/A
COLCHESTER RF*   N/A      3  -6  66 N21         N/A  WCI -18
DIAMOND ISL*     N/A      3  -8  60 NW18        N/A  WCI -17

$$

NYZ007-026>031-035-052-083-311200-
_____NORTHERN NEW YORK_____


CITY           SKY/WX    TMP DP  RH WIND       PRES   REMARKS
PLATTSBURGH    MOSUNNY   -3 -14  59 NW9       30.17S
SARANAC LAKE   MOSUNNY  -12 -17  78 VRB5      30.05S
MASSENA        PTSUNNY   -8 -16  67 W8        30.31R
OGDENSBURG*    SUNNY     -8 -11  84 NW5       30.30S
POTSDAM*       SUNNY    -11 -15  84 SW5       30.27F
STARK FALLS*     N/A    -13 N/A N/A W1          N/A
WATERTOWN      MOSUNNY  -19 -25  73 CALM      30.31F
FT DRUM        MOSUNNY   -9 -15  78 NW2       30.26S
ALBANY         MOSUNNY    1 -11  57 NW16      30.15R WCI -19
GLENS FALLS    MOSUNNY    1 -12  54 NW15      30.14R WCI -18

$$
NHZ002-005-011-311200-
_____NEW HAMPSHIRE_____


CITY           SKY/WX    TMP DP  RH WIND       PRES   REMARKS
LEBANON        PTSUNNY    1  -9  62 N15G22    30.00R WCI -18
KEENE          MOSUNNY    5  -6  61 N16G22    29.95R WCI -14
MT WASHINGTON  SNOW      -2  -2 100 NW53G64     N/A  VSB 1/8 WCI -35
PLYMOUTH       LGT SNOW   2  -2  81 W25       29.89R WCI -21
WHITEFIELD     LGT SNOW  -1  -8  72 NW6       29.97R

$$

_____REGIONAL QUEBEC LOCATIONS_____


CITY           SKY/WX    TMP DP  RH WIND       PRES   REMARKS
MONTREAL       MOSUNNY   -8 -17  65 W12       30.23R WCI -27
QUEBEC CITY    MOSUNNY   -2 -11  65 SW6       30.00R
SHERBROOKE     CLOUDY    -8 -13  77 W9        30.05R HAZE

_____REGIONAL ONTARIO LOCATIONS_____


CITY           SKY/WX    TMP DP  RH WIND       PRES   REMARKS
OTTAWA         SUNNY    -11 -17  77 W8        30.28F

______KEY______
VSB  - VISIBILITY IN MILES
WCI  - WIND CHILL INDEX
HX   - HEAT INDEX
$$
NNNN


USA.gov is the U.S. government's official web portal to all federal, state and local government web resources and services.